Concordia, KS

2:47 PM CST on December 04, 2016 (GMT -0600)
Blosser Municipal

Weather History for KCNK - November, 2012

Change the Weather History Date:

Thursday, November 1, 2012

  Actual Average Record
Temperature  
Mean Temperature 56 °F 49 °F  
Max Temperature 69 °F 60 °F 83 °F (1990)
Min Temperature 43 °F 38 °F 16 °F (1991)
Degree Days  
Heating Degree Days 9 16  
Month to date heating degree days 9 16  
Since 1 July heating degree days 456 407  
Cooling Degree Days 0 0  
Month to date cooling degree days 0 0  
Year to date cooling degree days 1643 1348  
Growing Degree Days 6 (Base 50)    
Moisture  
Dew Point 40 °F    
Average Humidity 55    
Maximum Humidity 71    
Minimum Humidity 39    
Precipitation  
Precipitation 0.00 in 0.05 in 2.60 in (1998)
Month to date precipitation 0.00 0.05  
Year to date precipitation 22.63 25.98  
Snow  
Snow 0.00 in 0.00 in 3.00 in (1991)
Month to date snowfall 0.0 0.0  
Year to date snowfall 5.8 13.9  
Since 1 July snowfall 0.0 0.2  
Snow Depth 0.00 in    
Sea Level Pressure  
Sea Level Pressure 29.96 in    
Wind  
Wind Speed 7 mph (NNW)    
Max Wind Speed 15 mph    
Max Gust Speed 17 mph    
Visibility 10 miles    
Events      
T = Trace of Precipitation, MM = Missing Value Source: NWS Daily Summary

Daily Weather History Graph

Daily Weather History Graph

Search for Another Location

Airport or City:

Trip Planner

Search our weather history database for the weather conditions in past years. The results will help you decide how hot, cold, wet, or windy it might be!

Date:

Astronomy

Nov. 01, 2012 Rise Set
Actual Time 7:59 AM CDT 6:28 PM CDT
Civil Twilight 7:31 AM CDT 6:56 PM CDT
Nautical Twilight 6:59 AM CDT 7:28 PM CDT
Astronomical Twilight 6:28 AM CDT 7:59 PM CDT
Moon 8:27 PM CDT (11/1) 10:32 AM CDT (11/1)
Length of Visible Light 11h 24m
Length of Day
10h 28m
Waning Gibbous, 93% of the Moon is Illuminated
Nov 1
Waning Gibbous
Nov 6
Last Quarter
Nov 13
New
Nov 20
First Quarter
Nov 28
Full

Hourly Weather History & Observations

Time (CDT) Temp. Windchill Dew Point Humidity Pressure Visibility Wind Dir Wind Speed Gust Speed Precip Events Conditions
12:55 AM 54.0 °F - 36.0 °F 51% 29.99 in 10.0 mi SSW 11.5 mph - N/A   Clear
1:55 AM 52.0 °F - 37.0 °F 57% 29.99 in 10.0 mi SW 10.4 mph - N/A   Clear
2:55 AM 52.0 °F - 37.0 °F 57% 29.98 in 10.0 mi WSW 5.8 mph - N/A   Clear
3:55 AM 48.0 °F - 37.0 °F 66% 29.97 in 10.0 mi WSW 5.8 mph - N/A   Clear
4:55 AM 46.0 °F 41.4 °F 37.0 °F 71% 29.98 in 8.0 mi West 9.2 mph - N/A   Clear
5:55 AM 46.0 °F 41.4 °F 37.0 °F 71% 29.98 in 10.0 mi WSW 9.2 mph - N/A   Clear
6:55 AM 46.9 °F - 37.0 °F 68% 29.99 in 10.0 mi West 10.4 mph - N/A   Clear
7:55 AM 46.9 °F - 37.0 °F 68% 29.98 in 10.0 mi West 8.1 mph - N/A   Clear
8:55 AM 46.9 °F - 37.9 °F 71% 30.01 in 8.0 mi West 9.2 mph - N/A   Clear
9:55 AM 51.1 °F - 39.0 °F 63% 30.01 in 10.0 mi NW 10.4 mph - N/A   Clear
10:55 AM 59.0 °F - 41.0 °F 51% 30.00 in 10.0 mi NNW 10.4 mph - N/A   Clear
11:55 AM 61.0 °F - 42.1 °F 50% 29.99 in 10.0 mi North 10.4 mph - N/A   Clear
12:55 PM 64.9 °F - 42.1 °F 43% 29.98 in 10.0 mi North 8.1 mph - N/A   Clear
1:55 PM 66.0 °F - 43.0 °F 43% 29.96 in 10.0 mi North 5.8 mph 16.1 mph N/A   Clear
2:55 PM 68.0 °F - 42.1 °F 39% 29.94 in 10.0 mi NNE 8.1 mph - N/A   Clear
3:55 PM 68.0 °F - 42.1 °F 39% 29.93 in 10.0 mi ENE 4.6 mph - N/A   Clear
4:55 PM 68.0 °F - 42.1 °F 39% 29.92 in 10.0 mi ENE 3.5 mph - N/A   Clear
5:55 PM 64.0 °F - 43.0 °F 46% 29.92 in 10.0 mi Calm Calm - N/A   Clear
6:55 PM 57.9 °F - 42.1 °F 56% 29.93 in 10.0 mi Calm Calm - N/A   Clear
7:55 PM 55.9 °F - 41.0 °F 57% 29.94 in 10.0 mi ENE 5.8 mph - N/A   Clear
8:55 PM 53.1 °F - 39.9 °F 61% 29.93 in 10.0 mi East 6.9 mph - N/A   Clear
9:55 PM 52.0 °F - 39.9 °F 63% 29.92 in 10.0 mi East 6.9 mph - N/A   Clear
10:55 PM 48.9 °F - 39.0 °F 69% 29.93 in 10.0 mi East 5.8 mph - N/A   Clear
11:55 PM 48.0 °F - 39.0 °F 71% 29.93 in 10.0 mi East 5.8 mph - N/A   Clear